This is the latest recevied weather packets stored in our database for station/object DJ5CM-10. If no packets are shown the sender has not sent any weather packets the latest 10 day(s).
| Time | Temp. | Humidity | Pressure | Rain* | Wind** | Luminosity | Snow |
|---|---|---|---|---|---|---|---|
| 1778212397 | 5.56° C | 63% | 1019.6 hPa | - | - | - | - |
| 1778211497 | 5.56° C | 62% | 1019.4 hPa | - | - | - | - |
| 1778210597 | 5.56° C | 62% | 1019.5 hPa | - | - | - | - |
| 1778209697 | 6.11° C | 61% | 1019.4 hPa | - | - | - | - |
| 1778208797 | 6.11° C | 61% | 1019.4 hPa | - | - | - | - |
| 1778207897 | 6.11° C | 61% | 1019.2 hPa | - | - | - | - |
| 1778206997 | 6.11° C | 60% | 1019.1 hPa | - | - | - | - |
| 1778206096 | 6.11° C | 59% | 1019.1 hPa | - | - | - | - |
| 1778205195 | 6.67° C | 59% | 1019.1 hPa | - | - | - | - |
| 1778204295 | 6.67° C | 59% | 1019 hPa | - | - | - | - |
| 1778203395 | 6.67° C | 58% | 1019 hPa | - | - | - | - |
| 1778202495 | 7.22° C | 58% | 1018.9 hPa | - | - | - | - |
| 1778201595 | 7.22° C | 57% | 1019 hPa | - | - | - | - |
| 1778200695 | 7.22° C | 57% | 1018.8 hPa | - | - | - | - |
| 1778199795 | 7.78° C | 56% | 1018.7 hPa | - | - | - | - |
| 1778198895 | 7.78° C | 56% | 1018.7 hPa | - | - | - | - |
| 1778197995 | 8.33° C | 54% | 1018.7 hPa | - | - | - | - |
| 1778197094 | 8.33° C | 54% | 1018.7 hPa | - | - | - | - |
| 1778196195 | 8.33° C | 53% | 1018.7 hPa | - | - | - | - |
| 1778195294 | 8.89° C | 53% | 1018.6 hPa | - | - | - | - |
| 1778194394 | 8.89° C | 52% | 1018.7 hPa | - | - | - | - |
| 1778193494 | 9.44° C | 51% | 1018.7 hPa | - | - | - | - |
| 1778192594 | 9.44° C | 50% | 1018.6 hPa | - | - | - | - |
| 1778191694 | 10° C | 49% | 1018.4 hPa | - | - | - | - |
| 1778190794 | 10.56° C | 49% | 1018.4 hPa | - | - | - | - |
* Rain since midnight (hover to see other rain measurements)
** Current wind speed in m/s (hover to see current wind gust speed)